Prague, Czech Republic

1:46 AM CET on December 05, 2016 (GMT +0100)
Ruzyne

Weather History for LKPR - May, 2012

Change the Weather History Date:

Thursday, May 17, 2012

  Actual Average Record
Temperature  
Mean Temperature 44 °F -  
Max Temperature 53 °F 68 °F 82 °F (1997)
Min Temperature 34 °F 48 °F 34 °F (2012)
Degree Days  
Heating Degree Days 22    
Moisture  
Dew Point 31 °F    
Average Humidity 60    
Maximum Humidity 93    
Minimum Humidity 28    
Precipitation  
Precipitation 0.00 in 0.10 in - ()
Sea Level Pressure  
Sea Level Pressure 30.15 in    
Wind  
Wind Speed 9 mph ()    
Max Wind Speed 16 mph    
Max Gust Speed -    
Visibility 6.2 miles    
Events      
Averages and records for this station are not official NWS values.
T = Trace of Precipitation, MM = Missing Value Source: Averaged Metar Reports

Daily Weather History Graph

Daily Weather History Graph

Search for Another Location

Airport or City:

Trip Planner

Search our weather history database for the weather conditions in past years. The results will help you decide how hot, cold, wet, or windy it might be!

Date:

Astronomy

May. 17, 2012 Rise Set
Actual Time 5:13 AM CEST 8:46 PM CEST
Civil Twilight 4:33 AM CEST 9:26 PM CEST
Nautical Twilight 3:39 AM CEST 10:20 PM CEST
Astronomical Twilight 2:24 AM CEST 11:37 PM CEST
Moon 3:21 AM CEST (5/17) 5:27 PM CEST (5/17)
Length of Visible Light 16h 52m
Length of Day
15h 32m
Waning Crescent, 11% of the Moon is Illuminated
May 17
Waning Crescent
May 21
New
May 28
First Quarter
Jun 4
Full
Jun 11
Last Quarter

Hourly Weather History & Observations

Time (CEST) Temp. Windchill Dew Point Humidity Pressure Visibility Wind Dir Wind Speed Gust Speed Precip Events Conditions
12:00 AM 42.8 °F 36.6 °F 35.6 °F 76% 30.12 in - WNW 11.5 mph - N/A   Clear
12:30 AM 41.0 °F 35.8 °F 35.6 °F 81% 30.12 in - West 8.1 mph - N/A   Clear
1:00 AM 39.2 °F 33.6 °F 35.6 °F 87% 30.12 in - West 8.1 mph - N/A   Clear
1:30 AM 39.2 °F 32.5 °F 35.6 °F 87% 30.12 in - West 10.4 mph - N/A   Clear
2:00 AM 39 °F - 35 °F 80% 30.20 in 31 mi West 8.9 mph - -  
2:00 AM 39.2 °F 32.5 °F 35.6 °F 87% 30.12 in - West 10.4 mph - N/A   Clear
2:09 AM 39.2 °F 33.0 °F 35.6 °F 87% 30.15 in - West 9.2 mph - N/A   Clear
2:30 AM 37.4 °F 30.8 °F 33.8 °F 87% 30.15 in - West 9.2 mph - N/A   Clear
3:00 AM 39.2 °F 33.0 °F 35.6 °F 87% 30.15 in - WNW 9.2 mph - N/A   Clear
3:30 AM 39.2 °F 33.6 °F 33.8 °F 81% 30.15 in - WNW 8.1 mph - N/A   Clear
4:00 AM 37.4 °F 33.8 °F 33.8 °F 87% 30.15 in - West 4.6 mph - N/A   Clear
4:30 AM 35.6 °F 29.2 °F 33.8 °F 93% 30.15 in - West 8.1 mph - N/A   Clear
5:00 AM 35.6 °F 29.9 °F 33.8 °F 93% 30.15 in 6.2 mi West 6.9 mph - N/A   Scattered Clouds
5:30 AM 33.8 °F 27.0 °F 32.0 °F 93% 30.15 in 6.2 mi West 8.1 mph - N/A   Partly Cloudy
6:00 AM 35.6 °F 29.2 °F 33.8 °F 93% 30.18 in 6.2 mi West 8.1 mph - N/A   Partly Cloudy
6:30 AM 39.2 °F 33.0 °F 33.8 °F 81% 30.18 in - WNW 9.2 mph - N/A   Clear
7:00 AM 41.0 °F 34.3 °F 33.8 °F 76% 30.18 in - WNW 11.5 mph - N/A   Clear
7:30 AM 41.0 °F 33.9 °F 33.8 °F 76% 30.18 in - WNW 12.7 mph - N/A   Clear
8:00 AM 42 °F - 32 °F 58% 30.24 in 22 mi NW 13.4 mph - -   Scattered Clouds
8:00 AM 42.8 °F 35.8 °F 32.0 °F 66% 30.18 in 6.2 mi NW 13.8 mph - N/A   Partly Cloudy
8:30 AM 42.8 °F 35.8 °F 32.0 °F 66% 30.18 in 6.2 mi NW 13.8 mph - N/A   Scattered Clouds
9:00 AM 44.6 °F 37.8 °F 30.2 °F 57% 30.18 in 6.2 mi NW 15.0 mph - N/A   Mostly Cloudy
9:30 AM 44.6 °F 37.4 °F 30.2 °F 57% 30.18 in 6.2 mi NW 16.1 mph - N/A   Mostly Cloudy
10:00 AM 46.4 °F 41.1 °F 32.0 °F 57% 30.18 in 6.2 mi NW 11.5 mph - N/A   Mostly Cloudy
10:30 AM 44.6 °F 38.4 °F 30.2 °F 57% 30.18 in 6.2 mi NW 12.7 mph - N/A   Scattered Clouds
11:00 AM 46.4 °F 41.1 °F 32.0 °F 57% 30.18 in 6.2 mi NW 11.5 mph - N/A   Scattered Clouds
11:30 AM 44.6 °F 38.8 °F 30.2 °F 57% 30.18 in 6.2 mi WNW 11.5 mph - N/A   Partly Cloudy
12:00 PM 48.2 °F - 30.2 °F 50% 30.18 in 6.2 mi NW 12.7 mph - N/A   Partly Cloudy
12:30 PM 46.4 °F 41.1 °F 28.4 °F 50% 30.18 in 6.2 mi NW 11.5 mph - N/A   Partly Cloudy
1:00 PM 50.0 °F - 28.4 °F 43% 30.15 in 6.2 mi NW 10.4 mph - N/A   Partly Cloudy
1:30 PM 48.2 °F - 26.6 °F 43% 30.15 in - NW 16.1 mph - N/A   Clear
2:00 PM 49 °F - 28 °F 31% 30.19 in 44 mi NNW 11.2 mph - -   Mostly Cloudy
2:00 PM 48.2 °F - 26.6 °F 43% 30.15 in - NW 10.4 mph - N/A   Clear
2:30 PM 50.0 °F - 28.4 °F 43% 30.15 in - NW 11.5 mph - N/A   Clear
3:00 PM 51.8 °F - 26.6 °F 38% 30.15 in - NW 11.5 mph - N/A   Clear
3:30 PM 53.6 °F - 30.2 °F 41% 30.15 in - NW 11.5 mph - N/A   Clear
4:00 PM 51.8 °F - 28.4 °F 41% 30.15 in - WNW 13.8 mph - N/A   Clear
4:30 PM 53.6 °F - 26.6 °F 35% 30.12 in - NW 15.0 mph - N/A   Clear
5:00 PM 53.6 °F - 26.6 °F 35% 30.12 in - NNW 10.4 mph - N/A   Clear
5:30 PM 53.6 °F - 28.4 °F 38% 30.12 in - North 11.5 mph - N/A   Clear
6:00 PM 51.8 °F - 28.4 °F 41% 30.12 in - North 9.2 mph - N/A   Clear
6:30 PM 51.8 °F - 28.4 °F 41% 30.12 in - North 9.2 mph - N/A   Clear
7:00 PM 51.8 °F - 26.6 °F 38% 30.12 in - North 6.9 mph - N/A   Clear
7:30 PM 51.8 °F - 26.6 °F 38% 30.12 in - North 9.2 mph - N/A   Clear
8:00 PM 50 °F - 27 °F 28% 30.14 in 47 mi NNE 6.7 mph - -   Scattered Clouds
8:00 PM 50.0 °F - 28.4 °F 43% 30.12 in - NNE 6.9 mph - N/A   Clear
8:30 PM 48.2 °F - 28.4 °F 46% 30.12 in - ENE 5.8 mph - N/A   Clear
9:00 PM 44.6 °F 42.2 °F 28.4 °F 53% 30.12 in - ENE 4.6 mph - N/A   Clear
9:30 PM 44.6 °F 43.1 °F 28.4 °F 53% 30.12 in - ENE 3.5 mph - N/A   Clear
10:00 PM 44.6 °F 43.1 °F 28.4 °F 53% 30.12 in - ENE 3.5 mph - N/A   Clear
10:30 PM 44.6 °F 42.2 °F 28.4 °F 53% 30.12 in - East 4.6 mph - N/A   Clear
11:00 PM 41.0 °F 39.0 °F 28.4 °F 61% 30.09 in - East 3.5 mph - N/A   Clear
11:30 PM 41.0 °F 37.1 °F 28.4 °F 61% 30.09 in - SE 5.8 mph - N/A   Clear